Home > Weather > Riffa > Past weeks

Flag for Bahrain Past Weather in Riffa, Bahrain — Yesterday and Last 2 Weeks

Now
93 °F

Sunny.


Feels Like: 126 °F
Forecast: 89 / 103 °F
Wind: 2 mph from North

Location: Bahrain International Airport

Current Time: Jul 26, 2016 at 7:36:50 AM

Latest Report: Jul 26, 2016 at 6:00 AM


Visibility: 2 mi

Pressure: 29.47 "Hg

Humidity: 80%

Dew Point: 86 °F

Location of RiffaLocation

Past Weather in Riffa — Graph

°F

Riffa Temperature Yesterday

Maximum temperature yesterday: 99 °F (at 12:00 PM)
Minimum temperature yesterday: 90 °F (at 4:00 AM)
Average temperature yesterday: 94 °F

High & Low Weather Summary for the Past Weeks

 TemperatureHumidityPressure
High108 °F (Jul 20, 9:00 AM)89% (Jul 17, 10:00 PM)29.56 "Hg (Jul 17, 10:00 PM)
Low88 °F (Jul 18, 3:00 AM)13% (Jul 15, 12:00 PM)29.36 "Hg (Jul 23, 2:00 PM)
Average97 °F55%29.45 "Hg
* Reported Jul 11 6:00 AM — Jul 26 6:00 AM, Riffa, Weather by CustomWeather, © 2016

Note: Actual official high and low records may vary slightly from our data, if they occured in-between our weather recording intervals... More about our weather records

Advertising

Riffa Weather History for the Previous 24 Hours

Scroll right to see more
 ConditionsComfort  
Time TempWeatherWind HumidityBarometerVisibility
6:00 AM
Tue, Jul 26
93 °FSunny.2 mph80%29.47 "Hg2 mi
5:00 AM93 °FSunny.2 mph75%29.47 "Hg2 mi
4:00 AM95 °FClear.3 mph67%29.47 "Hg3 mi
3:00 AM95 °FClear.3 mph67%29.45 "Hg3 mi
2:00 AM95 °FClear.2 mph67%29.45 "Hg3 mi
1:00 AM95 °FClear.3 mph67%29.45 "Hg3 mi
12:00 AM95 °FClear.10 mph75%29.47 "Hg3 mi
11:00 PM
Mon, Jul 25
93 °FClear.9 mph80%29.47 "Hg3 mi
10:00 PM93 °FClear.10 mph84%29.47 "Hg3 mi
9:00 PM93 °FClear.9 mph80%29.50 "Hg4 mi
8:00 PM93 °FClear.9 mph84%29.47 "Hg4 mi
7:00 PM93 °FHaze.10 mph80%29.45 "Hg3 mi
6:00 PM95 °FSunny.10 mph75%29.45 "Hg4 mi
5:00 PM97 °FSunny.12 mph71%29.45 "Hg4 mi
4:00 PM97 °FSunny.12 mph71%29.45 "Hg4 mi
3:00 PM97 °FHaze.13 mph71%29.45 "Hg3 mi
2:00 PM97 °FScattered clouds.13 mph71%29.45 "Hg3 mi
1:00 PM97 °FHaze.10 mph71%29.45 "Hg3 mi
12:00 PM99 °FScattered clouds.9 mph67%29.47 "Hg3 mi
11:00 AM97 °FPartly sunny.10 mph71%29.50 "Hg3 mi
10:00 AM95 °FScattered clouds.10 mph75%29.50 "Hg3 mi
9:00 AM97 °FHaze.8 mph67%29.50 "Hg3 mi
8:00 AM95 °FSunny.6 mph71%29.50 "Hg2 mi
7:00 AM93 °FSunny.No wind80%29.47 "Hg2 mi
Weather by CustomWeather, © 2016

See weather overviewHow to use our weather pages